[[{"header":{"parameterUnit":"m.s-1","parameterCategory":1,"la1":30.2991,"la2":30.254,"lo1":-89.0895,"lo2":-89.0444,"dy":0.0017,"dx":0.0017,"nx":28,"ny":28,"refTime":"2025-05-29T09:00:00:Z","depth":0,"parameterNumber":2,"parameterNumberName":"U-component_of_WINDS"},"data":[0,0,0,0,0,0,0,0,0,0,0,0,0,0,0,0,0,0,0,0,0,0,0,0,0,0,0,0,0,0,0,0,0,0,0,0,0,0,0,0,0,0,0,0,0,0,0,0,0,0,0,0,0,0,0,0,0,0,3.4084,3.4085,0,3.4128,3.4129,3.4129,3.4002,3.3998,3.3994,3.399,3.4037,3.4042,3.4047,0,0,0,0,0,0,0,0,0,0,0,0,0,3.3889,3.3893,3.4084,3.4085,3.4085,3.4128,3.4129,3.4129,3.4003,3.3998,3.3993,3.3989,3.4036,3.4042,3.4048,0,0,0,0,0,0,0,0,0,0,0,0,0,3.3958,3.3895,3.4084,3.4027,3.4022,3.4128,3.4129,3.413,3.4004,3.3998,3.3992,3.3986,3.4034,3.4041,3.4048,3.4212,0,0,3.4071,3.4074,0,0,0,0,0,0,0,0,3.3954,3.3965,3.4035,3.4031,3.4026,3.4054,3.4077,3.4157,3.4005,3.4011,3.399,3.3984,3.4048,3.4054,3.4075,3.4214,3.4216,3.4071,3.4076,3.4079,3.4081,0,0,0,0,0,0,0,3.395,3.3962,3.4102,3.4036,3.4031,3.3999,3.4002,3.4092,3.4062,3.401,3.4001,3.4008,3.4044,3.4068,3.4075,3.4217,3.4071,3.4078,3.4082,3.4085,3.4488,3.4494,0,0,0,0,0,0,3.3952,3.3959,3.41,3.4103,3.3975,3.4007,3.4011,3.4051,3.406,3.4056,3.4013,3.4002,3.4058,3.4067,3.4076,3.4265,3.4079,3.4086,3.409,3.4482,3.4489,3.4496,0,0,0,0,0,0,3.3948,3.3966,3.4098,3.4029,3.4043,3.4017,3.4063,3.4055,3.4078,3.4063,3.4057,3.4043,3.4054,3.4066,3.4178,3.4265,3.4089,3.4096,3.4474,3.4484,3.4493,3.4647,0,0,0,0,0,0,3.3943,3.3965,3.4028,3.4031,3.4047,3.42,3.4068,3.406,3.4091,3.4077,3.4089,3.4085,3.405,3.4168,3.4185,3.4272,3.4102,3.4466,3.4479,3.449,3.4634,3.4661,3.4683,0,0,0,0,0,3.3937,3.407,3.4031,3.4049,3.4125,3.4206,3.4215,3.4171,3.4099,3.4161,3.415,3.4085,3.4253,3.418,3.4199,3.429,3.4461,3.4475,3.4489,3.4623,3.4655,3.4683,0,0,0,0,0,0,3.4079,3.407,3.4026,3.4165,3.4187,3.4184,3.4261,3.4208,3.4251,3.4236,3.4181,3.4184,3.4306,3.4309,3.4228,3.4446,3.4344,3.4363,3.444,3.4471,3.4495,3.4491,3.4108,0,0,0,0,0,3.4127,3.4193,3.4181,3.4305,3.4318,3.4288,3.4322,3.4286,3.4306,3.4315,3.4313,3.4336,3.4392,3.4432,3.4484,3.4634,3.4633,3.4705,3.473,3.475,3.4767,3.4843,3.4874,3.4543,3.4542,3.4542,0,0,3.4225,3.4228,3.4274,3.4333,3.4346,3.4415,3.4296,3.4376,3.4426,3.4327,3.4432,3.4431,3.4453,3.4584,3.4641,3.459,3.4858,3.4768,3.4785,3.479,3.4861,3.4892,3.492,3.4552,3.455,3.4549,0,0,3.444,3.4451,3.4553,3.4567,3.4587,3.4566,3.4591,3.4595,3.459,3.4694,3.4621,3.468,3.4781,3.4798,3.482,3.5039,3.498,3.5058,3.5186,3.5261,3.5287,3.531,3.5386,3.5414,3.5075,3.5075,3.5075,0,3.4561,3.4662,3.4612,3.4695,3.4723,3.4635,3.4737,3.4754,3.4791,3.4811,3.4753,3.4876,3.4884,3.5017,3.507,3.5091,3.5116,3.5056,3.5288,3.531,3.5331,3.5402,3.5431,3.5084,3.5083,3.5082,3.5081,0,3.4808,3.4879,3.4959,3.4995,3.5031,3.5124,3.5088,3.513,3.5091,3.5076,3.5182,3.5188,3.5239,3.5268,3.5232,3.5395,3.5362,3.5297,3.5193,3.5372,3.5438,3.5465,3.5097,3.5094,3.5091,3.5089,0,0,3.5115,3.5119,3.515,3.5163,3.5178,3.5232,3.532,3.5368,3.5405,3.5433,3.5504,3.559,3.5529,3.5554,3.5518,3.5585,3.5754,3.5511,3.551,3.5554,3.5931,3.5979,3.6011,3.5715,3.572,3.5725,3.5929,0,3.5325,3.5474,3.543,3.558,3.5644,3.5561,3.5637,3.5654,3.5641,3.5693,3.5679,3.574,3.5657,3.5671,3.5733,3.5721,3.5829,3.5705,3.578,3.5783,3.5775,3.6046,3.6097,3.629,3.5954,3.5959,3.5962,0,3.559,3.5625,3.5782,3.5782,3.5807,3.5877,3.5916,3.5967,3.5984,3.597,3.5997,3.5947,3.6032,3.5928,3.6044,3.5961,3.5988,3.5987,3.5993,3.5997,3.5882,3.6056,3.635,3.6379,3.6003,3.5999,3.5997,0,3.5795,3.5883,3.5986,3.6001,3.6005,3.6055,3.606,3.607,3.6101,3.6136,3.6154,3.6199,3.6224,3.6259,3.6222,3.615,3.6342,3.6236,3.6331,3.6333,3.6375,3.6372,3.6676,3.6396,3.6396,3.6395,3.6395,0,3.6032,3.6131,3.6078,3.6142,3.6248,3.6197,3.6304,3.6299,3.6308,3.6369,3.63,3.6359,3.6306,3.636,3.6332,3.643,3.6442,3.6432,3.6423,3.6437,3.6439,3.6454,3.6439,3.6403,3.6401,3.64,3.6398,0,3.628,3.6248,3.6355,3.635,3.635,3.6429,3.6424,3.6482,3.6464,3.6541,3.6556,3.6528,3.6587,3.6553,3.6615,3.6595,3.6722,3.6696,3.6717,3.6709,3.6805,3.6796,3.7128,3.7168,3.6865,3.6868,3.687,0,3.6433,3.6506,3.6507,3.6542,3.655,3.6608,3.6638,3.659,3.6624,3.6647,3.6703,3.6755,3.6795,3.6893,3.6877,3.6923,3.6896,3.7009,3.6903,3.6914,3.6895,3.689,3.6896,3.7031,3.7034,3.7037,3.7039,0,3.6707,3.6687,3.6733,3.6773,3.6811,3.6841,3.6865,3.6897,3.6849,3.6891,3.695,3.698,3.7041,3.7094,3.7132,3.7136,3.708,3.7073,3.7097,3.7112,3.7119,3.7114,3.6773,3.7066,3.7063,3.7061,3.706,3.7059,3.691,3.6969,3.6979,3.7032,3.7044,3.7067,3.7121,3.7108,3.7156,3.7201,3.717,3.7239,3.7251,3.7296,3.7307,3.7359,3.7314,3.7349,3.7358,3.7367,3.7379,3.7112,3.7367,3.7366,3.7365,3.7364,3.7364,0,3.7178,3.7179,3.7228,3.7263,3.7304,3.7246,3.7269,3.7308,3.7369,3.7384,3.7424,3.749,3.754,3.7528,3.7573,3.7617,3.7592,3.763,3.7626,3.7627,3.7419,3.7392,3.7649,3.7649,3.7649,3.7649,3.7649,3.7649,3.7322,3.7419,3.74,3.7502,3.7502,3.7568,3.7586,3.7607,3.7618,3.7695,3.7736,3.7727,3.7731,3.7775,3.7818,3.7813,3.7832,3.7879,3.7865,3.767,3.7642,3.7615,3.759,3.7884,3.7884,3.8068,3.807,3.8071]},{"header":{"parameterUnit":"m.s-1","parameterCategory":1,"la1":30.2991,"la2":30.254,"lo1":-89.0895,"lo2":-89.0444,"dy":0.0017,"dx":0.0017,"nx":28,"ny":28,"refTime":"2025-05-29T09:00:00:Z","depth":0,"parameterNumber":3,"parameterNumberName":"V-component_of_WINDS"},"data":[0,0,0,0,0,0,0,0,0,0,0,0,0,0,0,0,0,0,0,0,0,0,0,0,0,0,0,0,0,0,0,0,0,0,0,0,0,0,0,0,0,0,0,0,0,0,0,0,0,0,0,0,0,0,0,0,0,0,0.7163,0.7164,0,0.7247,0.7248,0.7249,0.7235,0.7233,0.7232,0.723,0.7321,0.7325,0.7328,0,0,0,0,0,0,0,0,0,0,0,0,0,0.6993,0.6996,0.7163,0.7164,0.7165,0.7247,0.7248,0.7249,0.7235,0.7233,0.7231,0.723,0.732,0.7324,0.7329,0,0,0,0,0,0,0,0,0,0,0,0,0,0.7071,0.6997,0.7163,0.7168,0.7169,0.7247,0.7248,0.725,0.7235,0.7233,0.7231,0.7229,0.7318,0.7324,0.7329,0.7409,0,0,0.7347,0.7349,0,0,0,0,0,0,0,0,0.7066,0.7077,0.7166,0.7167,0.7169,0.7228,0.7221,0.7303,0.7236,0.721,0.723,0.7228,0.7292,0.73,0.7321,0.7413,0.7417,0.7347,0.7351,0.7353,0.7355,0,0,0,0,0,0,0,0.7061,0.7073,0.7196,0.7167,0.7169,0.7167,0.7175,0.7237,0.7263,0.7212,0.7212,0.7221,0.7293,0.7315,0.7323,0.7418,0.7347,0.7352,0.7356,0.7358,0.7578,0.7581,0,0,0,0,0,0,0.7054,0.7069,0.7194,0.7199,0.7111,0.7171,0.7181,0.7211,0.7262,0.7268,0.7223,0.722,0.7307,0.7316,0.7326,0.7421,0.7353,0.7359,0.7362,0.7576,0.7579,0.7581,0,0,0,0,0,0,0.705,0.7065,0.719,0.7134,0.7149,0.7177,0.7211,0.7214,0.7237,0.727,0.7275,0.7241,0.7305,0.7318,0.7388,0.7424,0.7361,0.7366,0.7573,0.7577,0.758,0.7613,0,0,0,0,0,0,0.7045,0.7064,0.7094,0.7134,0.7152,0.725,0.7213,0.7218,0.7246,0.7243,0.7289,0.7294,0.7304,0.7379,0.7393,0.7431,0.7371,0.757,0.7575,0.7579,0.7609,0.7617,0.7625,0,0,0,0,0,0.7039,0.7101,0.7095,0.7111,0.719,0.7252,0.7263,0.7272,0.7249,0.728,0.7301,0.7293,0.7417,0.7386,0.7402,0.7442,0.7568,0.7573,0.7579,0.7605,0.7616,0.7624,0,0,0,0,0,0,0.7067,0.7107,0.7101,0.7178,0.7211,0.725,0.7289,0.7283,0.7326,0.7322,0.7333,0.7343,0.7414,0.7435,0.7399,0.752,0.7489,0.7498,0.7504,0.7514,0.7522,0.7516,0.7375,0,0,0,0,0,0.7081,0.7127,0.716,0.7224,0.7241,0.7262,0.7289,0.7293,0.733,0.7344,0.7371,0.7407,0.7454,0.7485,0.7531,0.7611,0.7621,0.7646,0.7654,0.766,0.7668,0.7711,0.7722,0.7599,0.7599,0.7599,0,0,0.7113,0.714,0.7169,0.723,0.7257,0.7305,0.7274,0.7327,0.7362,0.7353,0.742,0.744,0.7481,0.7556,0.759,0.7576,0.7704,0.7667,0.7672,0.7677,0.7718,0.7729,0.774,0.7603,0.7602,0.7602,0,0,0.7194,0.7219,0.7275,0.7302,0.7341,0.7354,0.7367,0.7406,0.7419,0.7485,0.7479,0.7521,0.7603,0.7632,0.7658,0.7747,0.774,0.7761,0.7803,0.7844,0.7854,0.7863,0.7894,0.7905,0.7769,0.7769,0.7769,0,0.7229,0.7299,0.7305,0.7357,0.7384,0.7375,0.7432,0.7458,0.7511,0.753,0.7512,0.7613,0.764,0.7721,0.7742,0.7763,0.7779,0.7757,0.7852,0.7861,0.7869,0.7899,0.7911,0.7771,0.7771,0.777,0.777,0,0.7339,0.7388,0.7428,0.7477,0.7509,0.7563,0.7578,0.7609,0.7609,0.7624,0.7692,0.7723,0.7774,0.7794,0.7796,0.7874,0.7864,0.7849,0.7818,0.7883,0.7911,0.7923,0.7774,0.7773,0.7773,0.7772,0,0,0.7443,0.7492,0.7507,0.7528,0.757,0.7608,0.7661,0.7709,0.7735,0.7772,0.7817,0.7884,0.787,0.7899,0.7904,0.794,0.8007,0.792,0.7921,0.7935,0.8095,0.8106,0.8119,0.8002,0.8005,0.8006,0.8091,0,0.7528,0.7621,0.7626,0.771,0.7755,0.7745,0.7792,0.7823,0.7837,0.7878,0.7894,0.7942,0.7919,0.7936,0.7972,0.7991,0.8039,0.7985,0.8045,0.8047,0.8035,0.8134,0.8147,0.8225,0.8102,0.8104,0.8106,0,0.7641,0.7678,0.7765,0.7798,0.7817,0.7859,0.7902,0.794,0.7975,0.7983,0.8013,0.8013,0.8067,0.8033,0.8109,0.8072,0.8096,0.8109,0.8112,0.8119,0.8081,0.8143,0.8251,0.8262,0.8123,0.8122,0.8121,0,0.7707,0.7779,0.784,0.7859,0.7899,0.7928,0.7946,0.7978,0.8006,0.8044,0.8062,0.8106,0.8131,0.8165,0.8176,0.815,0.8251,0.8218,0.8259,0.8259,0.8282,0.8281,0.8395,0.8297,0.8297,0.8297,0.8297,0,0.7802,0.7856,0.787,0.7908,0.7968,0.7973,0.8033,0.805,0.8078,0.8119,0.8114,0.8153,0.8165,0.8206,0.8215,0.8275,0.8287,0.8295,0.8297,0.8296,0.8295,0.8313,0.8308,0.83,0.8299,0.8299,0.8298,0,0.7887,0.7898,0.7964,0.7996,0.8005,0.8048,0.8075,0.8111,0.8124,0.8176,0.8189,0.8209,0.8257,0.827,0.8329,0.8335,0.8406,0.8403,0.8394,0.8394,0.8434,0.843,0.8564,0.8582,0.8473,0.8474,0.8475,0,0.7947,0.7988,0.8022,0.8049,0.8067,0.811,0.8137,0.8144,0.8173,0.8213,0.8245,0.8291,0.8329,0.8406,0.8426,0.847,0.8468,0.8512,0.8475,0.8472,0.8469,0.8466,0.847,0.852,0.8521,0.8522,0.8523,0,0.8052,0.8055,0.8094,0.8133,0.8165,0.8198,0.8229,0.8251,0.8262,0.8294,0.8342,0.8371,0.8428,0.8475,0.8519,0.8539,0.8533,0.8533,0.8545,0.8545,0.8538,0.8542,0.8413,0.8531,0.853,0.853,0.8529,0.8529,0.8127,0.8162,0.8191,0.8233,0.8257,0.8285,0.832,0.8336,0.8375,0.8421,0.8423,0.8474,0.8506,0.8564,0.8586,0.8626,0.8614,0.8631,0.8635,0.864,0.8643,0.8531,0.8634,0.8634,0.8634,0.8634,0.8634,0,0.8232,0.8249,0.8288,0.833,0.8363,0.8352,0.8385,0.8414,0.8459,0.8488,0.8524,0.8578,0.8622,0.8644,0.8688,0.8717,0.8715,0.8728,0.8726,0.8731,0.8652,0.8637,0.8728,0.8728,0.8728,0.8728,0.8728,0.8728,0.829,0.8348,0.8354,0.8424,0.8441,0.849,0.8509,0.8536,0.8558,0.8618,0.8654,0.8667,0.8694,0.8739,0.8779,0.8784,0.8801,0.8816,0.882,0.8746,0.8736,0.8727,0.8713,0.8819,0.8819,0.8895,0.8896,0.8896]}]]